Radiation Dose measured at exhaust stack monitor of Fukushima Daiichi Nuclear Power Station
Date,Time,Unit 5 6 shared exhaust cylinders,Wind Direction,Wind Velocity(m/s)
2024/02/15,00:00,3.7,north-northeast,1.9
2024/02/15,00:10,3.8,east-northeast,1.7
2024/02/15,00:20,3.7,northeast,2.0
2024/02/15,00:30,3.7,north,1.2
2024/02/15,00:40,3.8,east-southeast,0.6
2024/02/15,00:50,3.7,west-southwest,0.9
2024/02/15,01:00,3.8,west,1.9
2024/02/15,01:10,3.7,southwest,1.7
2024/02/15,01:20,3.6,west-southwest,1.4
2024/02/15,01:30,3.7,west,1.5
2024/02/15,01:40,3.8,south-southwest,0.6
2024/02/15,01:50,3.6,west-southwest,2.3
2024/02/15,02:00,3.8,southwest,4.2
2024/02/15,02:10,3.8,southwest,4.4
2024/02/15,02:20,3.7,south-southwest,3.5
2024/02/15,02:30,3.9,south-southwest,3.1
2024/02/15,02:40,3.6,south,3.7
2024/02/15,02:50,3.7,south,4.6
2024/02/15,03:00,3.7,south,5.9
2024/02/15,03:10,4.0,south-southwest,5.3
2024/02/15,03:20,3.6,south,5.8
2024/02/15,03:30,3.8,south,6.2
2024/02/15,03:40,3.7,south,5.8
2024/02/15,03:50,3.7,south,7.8
2024/02/15,04:00,3.7,south,7.0
2024/02/15,04:10,3.9,south,8.0
2024/02/15,04:20,3.7,south,8.2
2024/02/15,04:30,3.7,south,7.8
2024/02/15,04:40,3.8,south,8.5
2024/02/15,04:50,3.8,south,7.2
2024/02/15,05:00,3.7,south,6.5
2024/02/15,05:10,3.7,south,6.9
2024/02/15,05:20,3.7,south,7.0
2024/02/15,05:30,3.7,south,9.3
2024/02/15,05:40,3.6,south-southwest,9.6
2024/02/15,05:50,3.7,south,9.8
2024/02/15,06:00,3.8,south,9.8
2024/02/15,06:10,3.7,south-southwest,9.6
2024/02/15,06:20,3.7,south-southwest,9.1
2024/02/15,06:30,3.7,south,9.8
2024/02/15,06:40,3.7,south,11.3
2024/02/15,06:50,3.9,south,11.3
2024/02/15,07:00,3.7,south,7.2
2024/02/15,07:10,3.7,south,8.7
2024/02/15,07:20,3.9,south,7.7
2024/02/15,07:30,3.7,south,7.5
2024/02/15,07:40,3.8,south,7.0
2024/02/15,07:50,3.8,south,7.4
2024/02/15,08:00,3.9,south,8.8
2024/02/15,08:10,3.9,south,9.3
2024/02/15,08:20,3.8,south,8.2
2024/02/15,08:30,3.8,south,8.8
2024/02/15,08:40,3.8,south,8.1
2024/02/15,08:50,3.8,south-southeast,9.3
2024/02/15,09:00,3.7,south,10.0
2024/02/15,09:10,3.8,south-southeast,10.7
2024/02/15,09:20,3.8,south-southeast,9.6
2024/02/15,09:30,3.7,south-southeast,11.4
2024/02/15,09:40,3.8,south-southeast,10.5
2024/02/15,09:50,3.8,south-southeast,10.5
2024/02/15,10:00,3.8,south,9.2
2024/02/15,10:10,3.8,south,6.3
2024/02/15,10:20,3.9,south,5.9
2024/02/15,10:30,3.7,south,6.3
2024/02/15,10:40,3.7,south,8.4
2024/02/15,10:50,3.7,south,7.6
2024/02/15,11:00,3.8,south,7.8
2024/02/15,11:10,3.8,south,5.7
2024/02/15,11:20,3.7,south,5.4
2024/02/15,11:30,3.7,south-southeast,5.9
2024/02/15,11:40,3.8,south-southeast,6.1
2024/02/15,11:50,3.6,south,8.0
2024/02/15,12:00,3.7,south-southeast,10.2
2024/02/15,12:10,3.6,south-southeast,9.5
2024/02/15,12:20,3.7,south-southeast,9.6
2024/02/15,12:30,3.9,south-southeast,10.3
2024/02/15,12:40,3.8,south-southeast,8.2
2024/02/15,12:50,3.7,south-southeast,10.0
2024/02/15,13:00,3.8,south-southeast,9.9
2024/02/15,13:10,3.7,south-southeast,10.2
2024/02/15,13:20,3.7,south-southeast,9.0
2024/02/15,13:30,3.9,south,5.9
2024/02/15,13:40,3.6,south-southwest,6.4
2024/02/15,13:50,3.7,south-southwest,7.7
2024/02/15,14:00,3.9,southwest,7.7
2024/02/15,14:10,3.6,southwest,7.3
2024/02/15,14:20,3.7,south-southwest,5.4
2024/02/15,14:30,3.7,south-southeast,10.0
2024/02/15,14:40,3.8,south,6.4
2024/02/15,14:50,3.8,south-southeast,8.6
2024/02/15,15:00,3.9,south,9.4
2024/02/15,15:10,3.7,south,8.5
2024/02/15,15:20,3.7,south,9.2
2024/02/15,15:30,3.7,south,10.3
2024/02/15,15:40,3.8,south,9.2
2024/02/15,15:50,3.9,south,7.5
2024/02/15,16:00,3.8,south,9.3
2024/02/15,16:10,3.8,south,7.5
2024/02/15,16:20,3.7,south,7.6
2024/02/15,16:30,3.8,south,8.4
2024/02/15,16:40,3.7,south,9.7
2024/02/15,16:50,3.9,south-southwest,7.6
2024/02/15,17:00,3.7,south,10.8
2024/02/15,17:10,3.8,south,10.8
2024/02/15,17:20,3.9,south,10.0
2024/02/15,17:30,3.8,south-southwest,7.9
2024/02/15,17:40,3.8,south,6.7
2024/02/15,17:50,3.8,south,7.4
2024/02/15,18:00,3.9,south,9.2
2024/02/15,18:10,3.7,south,9.2
2024/02/15,18:20,3.8,south,10.2
2024/02/15,18:30,3.8,south-southwest,9.1
2024/02/15,18:40,3.7,south-southwest,9.5
2024/02/15,18:50,3.8,south,7.6
2024/02/15,19:00,3.7,south,8.2
2024/02/15,19:10,3.5,south,10.5
2024/02/15,19:20,3.8,south-southwest,11.4
2024/02/15,19:30,3.8,south-southwest,9.9
2024/02/15,19:40,3.8,south,10.5
2024/02/15,19:50,3.8,south,9.7
2024/02/15,20:00,3.9,south,10.9
2024/02/15,20:10,3.8,south,10.5
2024/02/15,20:20,3.7,south,8.1
2024/02/15,20:30,3.6,south,7.2
2024/02/15,20:40,3.8,south-southeast,8.0
2024/02/15,20:50,3.7,south-southeast,9.5
2024/02/15,21:00,3.7,south-southeast,10.0
2024/02/15,21:10,3.8,south-southeast,10.3
2024/02/15,21:20,3.8,south,8.8
2024/02/15,21:30,3.7,south,10.9
2024/02/15,21:40,3.8,south,9.3
2024/02/15,21:50,4.0,south,10.8
2024/02/15,22:00,3.7,south-southeast,12.8
2024/02/15,22:10,3.8,south-southeast,13.1
2024/02/15,22:20,4.0,south-southeast,14.1
2024/02/15,22:30,3.9,south-southeast,11.0
2024/02/15,22:40,3.9,south-southeast,11.1
2024/02/15,22:50,3.7,south,6.9
2024/02/15,23:00,3.9,south-southwest,8.5
2024/02/15,23:10,3.8,southwest,7.6
2024/02/15,23:20,3.7,southwest,7.3
2024/02/15,23:30,3.8,southwest,8.1
2024/02/15,23:40,3.8,west-southwest,9.0
2024/02/15,23:50,3.7,west,8.3
